Location: Foots Cray
(51.4000°N, 0.1167°E)
Time: 03:37:27
(UTC+00:00)

Meteor 2-9 Rocket - Pass Details

Date: 15 May 2026
Orbit: 790 x 893 km, 81.3° (Epoch: 8 June)

Event Time Altitude Azimuth Distance (km) Brightness Sun altitude
Rises 22:30:53 0° 349° (N) 3,319 8.9 -17.1°
Reaches altitude 10° 22:33:18 10° 353° (N) 2,394 7.8 -17.3°
Maximum altitude 22:38:38 59° 73° (ENE) 945 4.4 -17.5°
Enters shadow 22:41:22 29° 142° (SE) 1,483 4.9 -17.7°
